Regional Weather Roundup
Issued by NWS

Home | Current Version | Previous Version | Text Only | Print | Product List | Glossary Off
Versions: 1 2 3 4 5 6 7 8 9 10 11 12 13 14 15 16 17 18 19 20 21 22 23 24 25 26 27 28 29 30 31 32 33 34 35 36 37 38 39 40 41 42 43 44 45 46 47 48 49 50

000
ASUS43 KTOP 240959
RWRKS

WEATHER ROUNDUP FOR KANSAS
NATIONAL WEATHER SERVICE GOODLAND KS
500 AM CDT FRI OCT 24 2014

NOTE:  "FAIR" INDICATES FEW OR NO CLOUDS BELOW 12,000 FEET WITH NO
SIGNIFICANT WEATHER AND/OR OBSTRUCTIONS TO VISIBILITY.

KSZ001>006-013>018-027>032-041>047-241100-
NORTHWEST KANSAS

CITY           SKY/WX    TMP DP  RH WIND       PRES   REMARKS
GOODLAND       CLEAR     54  45  71 SW14      30.06F
HAYS           PTCLDY    55  50  82 SW3       30.02S VSB 1
HILL CITY      PTCLDY    55  53  93 W7        30.01F
RUSSELL        PTCLDY    59  57  93 S13       30.00S
$$

KSZ061>065-074>080-084>089-241100-
SOUTHWEST KANSAS

CITY           SKY/WX    TMP DP  RH WIND       PRES   REMARKS
DODGE CITY     PTCLDY    60  55  83 SW10      30.05F
ELKHART          N/A     57  49  75 W8          N/A
GARDEN CITY    CLEAR     53  53 100 SW5       30.05F FOG
GREAT BEND     CLEAR     57  54  88 S6        30.03F
LIBERAL        CLEAR     54  46  76 SW6       30.08F
$$

KSZ066>073-081>083-090>101-241100-
SOUTHEAST KANSAS

CITY           SKY/WX    TMP DP  RH WIND       PRES   REMARKS
CHANUTE        PTCLDY    54  53  97 S7        30.09S FOG
COFFEYVILLE    PTCLDY    53  52  96 S5        30.10S
HUTCHINSON     CLEAR     57  55  93 S6        30.04F FOG
NEWTON         CLEAR     55  52  88 S7        30.07S
PARSONS        CLOUDY    56  54  93 S3        30.11S
WICHITA INTL   MOCLDY    57  55  93 S6        30.05S
WICHITA JABRA  CLEAR     55  54  96 S6        30.05F FOG
WINFIELD       CLEAR     58  56  93 S6        30.08S
$$

KSZ007>012-019>026-033>040-048>060-102>105-241100-
NORTHEAST KANSAS

CITY           SKY/WX    TMP DP  RH WIND       PRES   REMARKS
CONCORDIA      PTCLDY    59  58  96 S9        30.00S FOG
EMPORIA        CLOUDY    57  57 100 S14       30.04F FOG
LAWRENCE       CLOUDY    57  56  96 S5        30.05F FOG
MANHATTAN      CLEAR     57  56  96 CALM      30.02S FOG
OLATHE IND     FOG       55  55 100 S9        30.06F VSB 1
OLATHE EXE     CLOUDY    56  56 100 S7        30.06F FOG
SALINA         CLEAR     60  57  89 S10       30.01F
TOPEKA BILLARD MOCLDY    59  58  96 S6        30.04F FOG
TOPEKA FORBES  PTCLDY    57  56  96 S7        30.04F FOG
$$



USA.gov is the U.S. government's official web portal to all federal, state and local government web resources and services.